Other Surface Observations
Issued by NWS Upton, NY

Home | Current Version | Previous Version | Text Only | Print | Product List | Glossary On
Versions: 1 2 3 4 5 6 7 8 9 10 11 12 13 14 15 16 17 18 19 20 21 22 23 24 25 26 27 28 29 30 31 32 33 34 35 36 37 38 39 40 41 42 43 44 45 46 47 48 49 50
450
SXUS51 KOKX 161057
OSOOKX
New York City Metropolitan Area Weather Roundup
National Weather Service New York NY
600 AM EST TUE JAN 16 2018

CITY           SKY/WX    TMP DP  RH WIND       PRES   REMARKS
Central Park   CLOUDY    26  20  77 E6        30.51S WCI  19
LaGuardia Arpt CLOUDY    26  20  77 E7        30.50S WCI  18
Kennedy Intl   CLOUDY    26  23  88 NE8       30.51F WCI  18
Newark Liberty CLOUDY    26  18  71 NE6       30.50F WCI  19
Teterboro Arpt CLOUDY    25  17  72 NE6       30.50S WCI  18
Bronx Bot Gard   N/A     27  18  69 E3        30.52R
Bronx Lehman C   N/A     27  19  74 E6          N/A  WCI  20
Queens College   N/A     27  23  86 E6          N/A  WCI  20
Breezy Point     N/A    N/A N/A N/A NE5         N/A
Brooklyn Coll    N/A     28  23  80 NE3         N/A
Staten Island    N/A     27  19  74 NE3         N/A

>>>>>>>>>>>>>>>>>>>>>>>>>>>>>>>>> KEY <<<<<<<<<<<<<<<<<<<<<<<<<<<<<<<
> SKY/WX - Sky Condition/Present    : R : WCI - Wind Chill Index    <
>          Weather                  : E : VSB - Visibility in Miles <
> TMP    - Temperature in Deg F     : M : HX  - Heat Index          <
> DP     - Dew Point Temperature    : A : TC  - Temperature in      <
> RH     - Relative Humidity        : R :       Celsius             <
> WIND   - Direction/Speed (mph)    : K : VRB - Variable Wind Dir   <
> PRES   - Pressure (in Hg)         : S :                           <
>>>>>>>>>>>>>>>>>>>>>>>>>>>>>>>>> KEY <<<<<<<<<<<<<<<<<<<<<<<<<<<<<<<




USA.gov is the U.S. government's official web portal to all federal, state and local government web resources and services.